Weather Roundup
Issued by NWS Springfield, MO

Home | Current Version | Previous Version | Text Only | Print | Product List | Glossary On
Versions: 1 2 3 4 5 6 7 8 9 10 11 12 13 14 15 16 17 18 19 20 21 22 23 24 25 26 27 28 29 30 31 32 33 34 35 36 37 38 39 40 41 42 43 44 45 46 47 48 49 50
000
NZUS99 KSGF 100307
HRRSGF

HOURLY WEATHER
NATIONAL WEATHER SERVICE SPRINGFIELD MO
1000 PM CDT WED JUL 09 2014

......SGF CWA......

CITY           SKY/WX    TMP DP  RH WIND       PRES   REMARKS
SPRINGFIELD    CLEAR     71  62  73 CALM      30.06R
JOPLIN         CLEAR     71  61  70 NE6       30.04R
WEST PLAINS    CLEAR     68  63  84 CALM      30.06R
ROLLA            N/A    N/A N/A N/A MISG      30.05R
OSAGE BEACH    CLEAR     66  61  82 N3        30.05R
BRANSON        CLEAR     66  63  88 CALM      30.07R

......SURROUNDING SGF CWA......

CITY           SKY/WX    TMP DP  RH WIND       PRES   REMARKS
CHANUTE        CLEAR     74  61  63 E6        30.03R
PARSONS        CLEAR     71  61  70 CALM      30.03R
COFFEYVILLE    CLEAR     75  60  59 E6        30.01R
EMPORIA        CLEAR     71  61  70 SE7       30.03R
GROVE OK       CLEAR     73  64  73 CALM      30.03R
ROGERS AR      CLEAR     74  61  63 E6        30.07R
SILOAM SPRINGS CLEAR     72  57  60 CALM      30.06R
HARRISON AR    CLEAR     70  60  70 CALM      30.07R
NEAR YELLVILLE CLEAR     72  63  73 CALM      30.04R

......KANSAS AND MISSOURI......

CITY           SKY/WX    TMP DP  RH WIND       PRES   REMARKS
KANSAS CTY INT MOCLDY    76  59  55 SE9       30.06R
DOWNTOWN KC    CLEAR     76  59  55 E6        30.05R
COLUMBIA       CLEAR     69  60  73 NE5       30.06R
SEDALIA        CLEAR     69  62  78 CALM      30.06R
ST JOSEPH      MOCLDY    74  61  63 E6        30.04R
ST LOUIS       PTCLDY    74  59  59 N5        30.04R
SPIRIT OF STL  CLEAR     66  62  87 CALM      30.02R
KIRKSVILLE     CLEAR     63  61  93 CALM      30.07R
WICHITA        PTCLDY    79  62  56 SE10      29.99R
TOPEKA         MOCLDY    76  65  68 NE5       30.04R
OLATHE         CLEAR     73  60  63 E5        30.06R

......TENNESSEE......

CITY           SKY/WX    TMP DP  RH WIND       PRES   REMARKS
MEMPHIS        PTCLDY    77  71  82 CALM      30.03R
NASHVILLE      PTCLDY    77  69  76 CALM      30.03R

......ARKANSAS.......

CITY           SKY/WX    TMP DP  RH WIND       PRES   REMARKS
FAYETTEVILLE   PTCLDY    68  66  93 S3        30.05R
FT SMITH       CLEAR     80  68  66 CALM      29.99R HAZE
LITTLE ROCK    MOCLDY    77  71  82 SW5       30.02R

......OKLAHOMA.......

CITY           SKY/WX    TMP DP  RH WIND       PRES   REMARKS
TULSA          PTCLDY    81  66  60 S8        29.98R
PONCA CITY     CLEAR     80  63  55 SE10      29.99R
MCALESTER      PTCLDY    77  70  79 E5        30.00R
OKLAHOMA CITY  MOCLDY    76  69  79 SE6       30.00R

......IOWA............

CITY           SKY/WX    TMP DP  RH WIND       PRES   REMARKS
DES MOINES     PTCLDY    73  60  63 S6        30.02R
QUAD CITIES    CLEAR     64  58  80 CALM      30.03R

......ILLINOIS........

CITY           SKY/WX    TMP DP  RH WIND       PRES   REMARKS
QUINCY         CLEAR     68  59  73 CALM      30.06R
CHICAGO        CLEAR     68  54  60 E3        30.04R




USA.gov is the U.S. government's official web portal to all federal, state and local government web resources and services.